FENGYUN 1C DEB *, 46993

Orbit data source: Space-Track

FENGYUN 1C DEB *, 46993 is space debris in SSO originally from a launch on Mon, 10 May 1999 UTC launched from the Taiyaun Space Center, China (TSC). Fengyun 1C debris stems from the Chinese weather satellite Fengyun-1C, which was intentionally destroyed by a Chinese anti-satellite missile in 2007. This event dramatically increased the amount of space debris, with thousands of trackable fragments posing hazards to satellites and human spaceflight. The Fengyun 1C debris cloud has become a focal point in discussions about space sustainability and the need for international regulations to prevent the creation of new debris.

Loading next visibility...
Identifier
46993, 1999-025EZT
Orbit
SSO
Last TLE update
3 days ago
Origin
Manufacturer
Unknown
Mission
Spacecraft
Bus & Motor
Unknown
Mass
Unknown
Launch date (UTC)
1999-05-10 (26 years ago)
Launch vehicle
Unknown
Launch site
Taiyaun Space Center, China (TSC)
Object type
Payload
Rocket body
Debris
Shape & HBR
Unknown
Radar Cross Section
Small (<0.1 m²)

Expand to show TLE details & history

TLE from 3 days ago
0 FENGYUN 1C DEB *
1 46993U 99025EZT 25189.60390226  .00000064  00000-0  93790-4 0  9991
2 46993  98.7073 322.8553 0263213 355.8661  62.9224 13.68997268581060
Epoch: 2025-07-08T14:29Z
TLE epoch observation values (Epoch: 2025-07-08T14:29:37.155Z)
Latitude
60.41455°
Longitude
163.08836°
Altitude
929.09 km
Speed
7.435 km/s
True Right ascension
20h 29m 09s
True Declination
60° 16' 12"
Sunlit
Object was in daylight at epoch
Visualization orbit readout
Latitude
-19.65638°
Longitude
-1.86151°
Altitude
1,174.966 km
Speed
7.184 km/s
Apparent Right ascension
10h 27m 49s
Apparent Declination
-29° 58' 05"
Sunlit
Object is in daylight
Visualization observer readout
Local Sidereal Time
23:53:49
Azimuth
67.106° ENE
Elevation
-69.84°
Doppler factor
1
Orbital elements
Apogee altitude
1,194.61 km
Perigee altitude
806.185 km
Semi-major axis
7,378.534 km
Eccentricity
0.02632
Inclination
98.7073°
RAAN
322.8553°
Arg. of periapsis
355.8661°
True anomaly
Unknown
Mean anomaly
62.9224°
Eccentric anomaly
Unknown
Mean motion
3.42443 °/min
Orbital period
105.13 mins
BSTAR
0.00009379
Loading maneuver chart data...
Loading SW <> Apogee altitude chart data...
Loading historical data...
Loading historical data...
Loading historical data...
Loading historical data...
Loading historical data...
Loading historical data...
Loading historical data...

FENGYUN 1C DEB * Visibility forecast

Observer location: undefined°, undefined°

Span
Click to sort rows by Start time (UTC) header in descending order
Start Az.
Max El. time (UTC)
Max El. Az.
Max El.
End time (UTC)
End Az.
6 mins2025-07-11 20:01:45.204Z65.741° ENE2025-07-11 20:04:45.204Z92.793° ESE13.82°2025-07-11 20:07:45.204Z118.053° SE
12 mins2025-07-11 21:43:45.204Z15.695° NNE2025-07-11 21:48:45.204Z92.433° ESE44.882°2025-07-11 21:55:45.204Z193.036° SSW
7 mins2025-07-11 23:28:45.204Z330.995° NNW2025-07-11 23:31:45.204Z301.121° NW18.187°2025-07-11 23:35:45.204Z263.848° W
8 mins2025-07-12 07:48:45.204Z111.905° ESE2025-07-12 07:51:45.204Z71.177° E24.727°2025-07-12 07:56:45.204Z9.641° NNE
8 mins2025-07-12 09:32:45.204Z207.764° SW2025-07-12 09:35:45.204Z262.161° W32.278°2025-07-12 09:40:45.204Z329.577° NNW
|